User: anonymous   Login
Location: Laterina
(43.5167°N, 11.7167°E)
Time: 01:21:54
(UTC+00:00)
Language:

Cosmos 1626 - Orbit

View from above orbital plane
View from above orbital plane
View from above satellite
View from above satellite

Ground track
Ground track

The orbit data is extracted from the following two-line orbital elements,

1 15494U 85009A   20331.55252619 +.00002245 +00000-0 +90245-4 0  9996
2 15494 082.4808 068.6644 0001725 007.5745 352.5518 15.24424502960072
Epoch (UTC): 26 November 2020 13:15:38
Eccentricity: 0.0001725
inclination: 82.4808°
perigee height: 491 km
apogee height: 494 km
right ascension of ascending node: 68.6644°
argument of perigee: 7.5745°
revolutions per day: 15.24424502
mean anomaly at epoch: 352.5518°
orbit number at epoch: 96007

The dashed part of the orbit path shows where the satellite is in the earth's shadow,  

DLR